This demonstration page uses our WeatherBlox Daily Observations layout. Learn more.

Left ArrowRight Arrow

Hourly Observations for August 12, 2021

Temp ( °F °C ) Dew Point ( °F °C ) Humidity (%) Winds ( mph kmh ) Pressure ( in mb ) Visibility ( mi km ) Precip ( " mm )
12:53 am 00:53 Cloudy with Smoke 81 27.2 50 10 34 34 VRB 3 6 29.85 1011 8 13 0.00 0.00
1:53 am 01:53 Cloudy with Smoke 79 26.1 50 10 36 36 Calm 29.87 1012 8 13 0.00 0.00
2:53 am 02:53 Cloudy with Smoke 77 25 52 11.1 42 42 Calm 29.88 1012 9 14 0.00 0.00
3:53 am 03:53 Partly Cloudy with Smoke 77 25 53 11.7 43 43 Calm 29.88 1012 8 13 0.00 0.00
4:53 am 04:53 Clear with Smoke 74 23.3 50 10 43 43 N 3 6 29.88 1012 7 11 0.00 0.00
5:53 am 05:53 Partly Cloudy with Smoke 73 22.8 51 10.6 46 46 N 5 7 29.89 1012 8 13 0.00 0.00
6:53 am 06:53 Mostly Cloudy with Haze 71 21.7 52 11.1 51 51 Calm 29.90 1012 4 6 0.00 0.00
7:53 am 07:53 Cloudy with Haze 74 23.3 54 12.2 50 50 Calm 29.91 1013 5 8 0.00 0.00
8:53 am 08:53 Cloudy with Haze 80 26.7 53 11.7 39 39 Calm 29.91 1013 6 10 0.00 0.00
9:53 am 09:53 Cloudy with Haze 84 28.9 55 12.8 37 37 Calm 29.90 1013 5 8 0.00 0.00
10:53 am 10:53 Mostly Cloudy with Haze 88 31.1 55 12.8 33 33 W 3 6 29.90 1013 4 6 0.00 0.00
11:53 am 11:53 Hazy 93 33.9 51 10.6 24 24 SW 5 7 29.89 1012 4 6 0.00 0.00
12:53 pm 12:53 Partly Cloudy with Smoke 97 36.1 50 10 20 20 VRB 3 6 29.85 1011 8 13 0.00 0.00
1:53 pm 13:53 Cloudy with Haze 100 37.8 50 10 18 18 Calm 29.82 1010 4 6 0.00 0.00
2:53 pm 14:53 Cloudy with Haze 105 40.6 49 9.4 15 15 NNE 3 6 29.79 1009 3 5 0.00 0.00
3:33 pm 15:33 Cloudy with Haze 103 39.4 52 11.1 18 18 S 8 13 29.76 1008 3 5 0.00 0.00
3:53 pm 15:53 Cloudy with Haze 105 40.6 50 10 16 16 S 9 15 29.77 1008 3 5 0.00 0.00
4:02 pm 16:02 Cloudy with Haze 104 40 50 10 16 16 S 9 15 29.75 1008 3 4 0.00 0.00
4:36 pm 16:36 Cloudy with Haze 106 41.1 49 9.4 15 15 S 8 13 29.73 1007 3 4 0.00 0.00
4:53 pm 16:53 Cloudy with Haze 105 40.6 48 8.9 15 15 S 8 13 29.75 1008 3 4 0.00 0.00
5:29 pm 17:29 Cloudy with Haze 105 40.6 51 10.6 16 16 SSE 10 17 29.72 1007 3 5 0.00 0.00
5:53 pm 17:53 Cloudy with Haze 104 40 51 10.6 17 17 SSE 10 17 29.74 1007 5 8 0.00 0.00
6:53 pm 18:53 Cloudy with Haze 98 36.7 56 13.3 24 24 S 15 24 29.76 1008 4 6 0.00 0.00
7:53 pm 19:53 Cloudy with Haze 95 35 55 12.8 26 26 WSW 7 11 29.78 1008 6 10 0.00 0.00
8:53 pm 20:53 Cloudy with Smoke 92 33.3 55 12.8 29 29 SE 7 11 29.81 1010 9 14 0.00 0.00
9:53 pm 21:53 Cloudy with Smoke 88 31.1 58 14.4 36 36 SSE 10 17 29.85 1011 10 16 0.00 0.00
10:53 pm 22:53 Cloudy with Smoke 84 28.9 60 15.6 44 44 Calm 29.85 1011 10 16 0.00 0.00
11:53 pm 23:53 Cloudy with Smoke 84 28.9 59 15 43 43 NE 5 7 29.87 1012 10 16 0.00 0.00

Powered by AerisWeather